| time (UTC) | temp F | wind direction | speed MPH | gust MPH | rain 1hr in | rain 24hr in | rain mn in | humidity % | barometer mb |
| 20260508203016 | 60 | 319 | 8.0 | 16.0 | 0.00 | 0.00 | 0.00 | 39 | 1009.8 |
| 20260508202017 | 59 | 243 | 4.0 | 17.0 | 0.00 | 0.00 | 0.00 | 41 | 1009.8 |
| 20260508201017 | 59 | 330 | 8.0 | 20.0 | 0.00 | 0.00 | 0.00 | 40 | 1009.8 |
| 20260508200016 | 60 | 318 | 5.0 | 17.0 | 0.00 | 0.00 | 0.00 | 39 | 1009.8 |
| 20260508195017 | 60 | 329 | 8.0 | 17.0 | 0.00 | 0.00 | 0.00 | 40 | 1009.9 |
| 20260508194016 | 60 | 323 | 7.0 | 15.0 | 0.00 | 0.00 | 0.00 | 40 | 1009.9 |
| 20260508193016 | 59 | 327 | 6.0 | 15.0 | 0.00 | 0.00 | 0.00 | 41 | 1010.0 |
| 20260508192017 | 59 | 329 | 5.0 | 15.0 | 0.00 | 0.00 | 0.00 | 41 | 1010.0 |
| 20260508191015 | 59 | 310 | 5.0 | 12.0 | 0.00 | 0.00 | 0.00 | 40 | 1010.0 |
| 20260508190016 | 59 | 330 | 4.0 | 14.0 | 0.00 | 0.00 | 0.00 | 40 | 1010.0 |
| 20260508185017 | 60 | 321 | 7.0 | 17.0 | 0.00 | 0.00 | 0.00 | 38 | 1010.2 |
| 20260508184015 | 60 | 329 | 6.0 | 18.0 | 0.00 | 0.00 | 0.00 | 39 | 1010.2 |
| 20260508183016 | 60 | 331 | 4.0 | 15.0 | 0.00 | 0.00 | 0.00 | 41 | 1010.2 |
| 20260508182017 | 59 | 314 | 8.0 | 16.0 | 0.00 | 0.00 | 0.00 | 39 | 1010.2 |
| 20260508181018 | 60 | 337 | 4.0 | 14.0 | 0.00 | 0.00 | 0.00 | 39 | 1010.2 |
| 20260508180036 | 59 | 312 | 6.0 | 14.0 | 0.00 | 0.00 | 0.00 | 39 | 1010.3 |
| 20260508175017 | 58 | 337 | 5.0 | 20.0 | 0.00 | 0.00 | 0.00 | 39 | 1010.3 |
| 20260508174017 | 57 | 341 | 3.0 | 11.0 | 0.00 | 0.00 | 0.00 | 41 | 1010.4 |
| 20260508173016 | 56 | 330 | 5.0 | 14.0 | 0.00 | 0.00 | 0.00 | 41 | 1010.4 |
| 20260508172037 | 55 | 325 | 5.0 | 13.0 | 0.00 | 0.00 | 0.00 | 46 | 1010.5 |
| 20260508171015 | 55 | 317 | 4.0 | 12.0 | 0.00 | 0.00 | 0.00 | 45 | 1010.5 |
| 20260508170036 | 57 | 281 | 5.0 | 16.0 | 0.00 | 0.00 | 0.00 | 42 | 1010.5 |
| 20260508165016 | 57 | 299 | 6.0 | 17.0 | 0.00 | 0.00 | 0.00 | 40 | 1010.5 |
| 20260508164036 | 56 | 297 | 3.0 | 9.0 | 0.00 | 0.00 | 0.00 | 45 | 1010.5 |
| 20260508163015 | 55 | 293 | 5.0 | 14.0 | 0.00 | 0.00 | 0.00 | 45 | 1010.5 |
| 20260508162016 | 56 | 303 | 6.0 | 14.0 | 0.00 | 0.00 | 0.00 | 41 | 1010.5 |
| 20260508161017 | 57 | 324 | 7.0 | 14.0 | 0.00 | 0.00 | 0.00 | 39 | 1010.5 |
| 20260508160016 | 57 | 320 | 7.0 | 17.0 | 0.00 | 0.00 | 0.00 | 40 | 1010.5 |
| 20260508155017 | 56 | 323 | 7.0 | 17.0 | 0.00 | 0.00 | 0.00 | 40 | 1010.6 |
| 20260508154017 | 56 | 328 | 6.0 | 16.0 | 0.00 | 0.00 | 0.00 | 40 | 1010.6 |
| 20260508153016 | 56 | 315 | 5.0 | 14.0 | 0.00 | 0.00 | 0.00 | 40 | 1010.5 |
| 20260508152017 | 57 | 323 | 5.0 | 11.0 | 0.00 | 0.00 | 0.00 | 41 | 1010.5 |
| 20260508151017 | 57 | 311 | 4.0 | 8.0 | 0.00 | 0.00 | 0.00 | 41 | 1010.5 |
| 20260508150016 | 57 | 322 | 5.0 | 15.0 | 0.00 | 0.00 | 0.00 | 42 | 1010.5 |
| 20260508145017 | 56 | 340 | 5.0 | 16.0 | 0.00 | 0.00 | 0.00 | 43 | 1010.4 |
| 20260508144324 | 56 | 270 | 4.0 | 6.0 | 0.00 | 0.00 | 0.00 | 44 | 1010.3 |
| 20260508143017 | 55 | 315 | 5.0 | 12.0 | 0.00 | 0.00 | 0.00 | 44 | 1010.3 |
| 20260508142347 | 55 | 315 | 4.0 | 4.0 | 0.00 | 0.00 | 0.00 | 47 | 1010.3 |
| 20260508141017 | 55 | 341 | 4.0 | 10.0 | 0.00 | 0.00 | 0.00 | 47 | 1010.3 |
| 20260508140016 | 54 | 303 | 4.0 | 11.0 | 0.00 | 0.00 | 0.00 | 49 | 1010.4 |
| 20260508135017 | 53 | 331 | 4.0 | 10.0 | 0.00 | 0.00 | 0.00 | 51 | 1010.5 |
| 20260508134036 | 53 | 300 | 2.0 | 7.0 | 0.00 | 0.00 | 0.00 | 52 | 1010.6 |
| 20260508133018 | 52 | 293 | 3.0 | 9.0 | 0.00 | 0.00 | 0.00 | 52 | 1010.8 |
| 20260508132016 | 51 | 195 | 2.0 | 9.0 | 0.00 | 0.00 | 0.00 | 55 | 1011.0 |
| 20260508131019 | 51 | 343 | 4.0 | 11.0 | 0.00 | 0.00 | 0.00 | 56 | 1011.2 |
| 20260508130016 | 50 | 290 | 3.0 | 14.0 | 0.00 | 0.01 | 0.00 | 58 | 1011.2 |
| 20260508125036 | 49 | 330 | 4.0 | 11.0 | 0.00 | 0.01 | 0.00 | 59 | 1011.2 |
| 20260508124017 | 48 | 331 | 4.0 | 11.0 | 0.00 | 0.01 | 0.00 | 61 | 1011.1 |
| 20260508123016 | 48 | 302 | 5.0 | 10.0 | 0.00 | 0.01 | 0.00 | 62 | 1011.1 |
| 20260508122036 | 47 | 317 | 4.0 | 13.0 | 0.00 | 0.01 | 0.00 | 65 | 1011.1 |
| 20260508121017 | 45 | 326 | 5.0 | 10.0 | 0.00 | 0.01 | 0.00 | 68 | 1011.2 |
| 20260508120016 | 44 | 314 | 4.0 | 9.0 | 0.00 | 0.01 | 0.00 | 69 | 1011.2 |
| 20260508115016 | 44 | 291 | 4.0 | 12.0 | 0.00 | 0.01 | 0.00 | 71 | 1011.1 |
| 20260508114017 | 43 | 329 | 4.0 | 10.0 | 0.00 | 0.01 | 0.00 | 71 | 1011.0 |
| 20260508113016 | 43 | 335 | 2.0 | 6.0 | 0.00 | 0.01 | 0.00 | 71 | 1011.0 |
| 20260508112016 | 43 | 329 | 2.0 | 7.0 | 0.00 | 0.01 | 0.00 | 71 | 1011.0 |
| 20260508111017 | 42 | 322 | 2.0 | 8.0 | 0.00 | 0.01 | 0.00 | 71 | 1011.0 |
| 20260508110056 | 42 | 329 | 3.0 | 9.0 | 0.00 | 0.01 | 0.00 | 71 | 1010.9 |
| 20260508105017 | 42 | 304 | 3.0 | 8.0 | 0.00 | 0.01 | 0.00 | 70 | 1010.7 |
| 20260508104015 | 42 | 311 | 3.0 | 7.0 | 0.00 | 0.01 | 0.00 | 69 | 1010.6 |
| 20260508103016 | 43 | 323 | 2.0 | 6.0 | 0.00 | 0.01 | 0.00 | 67 | 1010.6 |
| 20260508102037 | 43 | 270 | 3.0 | 8.0 | 0.00 | 0.01 | 0.00 | 67 | 1010.6 |
| 20260508101016 | 43 | 295 | 4.0 | 10.0 | 0.00 | 0.01 | 0.00 | 66 | 1010.5 |
| 20260508100037 | 44 | 299 | 4.0 | 14.0 | 0.00 | 0.01 | 0.00 | 63 | 1010.4 |
| 20260508095016 | 44 | 309 | 5.0 | 17.0 | 0.00 | 0.01 | 0.00 | 59 | 1010.2 |
| 20260508094017 | 44 | 313 | 4.0 | 11.0 | 0.00 | 0.01 | 0.00 | 57 | 1010.2 |
| 20260508093017 | 44 | 315 | 4.0 | 9.0 | 0.00 | 0.01 | 0.00 | 56 | 1010.0 |
| 20260508092017 | 44 | 310 | 3.0 | 14.0 | 0.00 | 0.01 | 0.00 | 55 | 1009.9 |
| 20260508091017 | 44 | 318 | 4.0 | 8.0 | 0.00 | 0.01 | 0.00 | 54 | 1009.9 |
| 20260508090016 | 44 | 317 | 4.0 | 8.0 | 0.00 | 0.01 | 0.00 | 54 | 1009.9 |
| 20260508085320 | 44 | 0 | 3.0 | 4.0 | 0.00 | 0.01 | 0.00 | 53 | 1009.8 |
| 20260508084016 | 44 | 328 | 4.0 | 10.0 | 0.00 | 0.01 | 0.00 | 53 | 1009.7 |
| 20260508083016 | 44 | 324 | 3.0 | 9.0 | 0.00 | 0.01 | 0.00 | 53 | 1009.6 |
| 20260508082017 | 44 | 321 | 3.0 | 9.0 | 0.00 | 0.01 | 0.00 | 53 | 1009.5 |
| 20260508081016 | 44 | 319 | 4.0 | 10.0 | 0.00 | 0.01 | 0.00 | 53 | 1009.4 |
| 20260508080017 | 44 | 318 | 4.0 | 7.0 | 0.00 | 0.01 | 0.00 | 53 | 1009.4 |
| 20260508075016 | 43 | 329 | 3.0 | 11.0 | 0.00 | 0.01 | 0.00 | 53 | 1009.3 |
| 20260508074016 | 43 | 318 | 2.0 | 10.0 | 0.00 | 0.01 | 0.00 | 53 | 1009.3 |
| 20260508073017 | 43 | 311 | 3.0 | 6.0 | 0.00 | 0.01 | 0.00 | 54 | 1009.3 |
| 20260508072016 | 43 | 331 | 3.0 | 8.0 | 0.00 | 0.01 | 0.00 | 53 | 1009.3 |
| 20260508071017 | 43 | 313 | 3.0 | 10.0 | 0.00 | 0.01 | 0.00 | 53 | 1009.2 |
| 20260508070017 | 43 | 320 | 2.0 | 7.0 | 0.00 | 0.01 | 0.00 | 54 | 1009.2 |
| 20260508065016 | 43 | 326 | 2.0 | 6.0 | 0.00 | 0.01 | 0.00 | 55 | 1009.1 |
| 20260508064322 | 42 | 315 | 1.0 | 3.0 | 0.00 | 0.01 | 0.00 | 58 | 1009.1 |
| 20260508063517 | 42 | 326 | 1.0 | 5.0 | 0.00 | 0.01 | 0.00 | 57 | 1009.2 |
| 20260508062839 | 42 | 0 | 1.0 | 3.0 | 0.00 | 0.01 | 0.00 | 55 | 1009.2 |
| 20260508062016 | 42 | 329 | 1.0 | 4.0 | 0.00 | 0.01 | 0.00 | 56 | 1009.3 |
| 20260508061017 | 42 | 336 | 1.0 | 8.0 | 0.00 | 0.01 | 0.00 | 55 | 1009.4 |
| 20260508060017 | 42 | 305 | 2.0 | 6.0 | 0.00 | 0.01 | 0.00 | 56 | 1009.4 |
| 20260508055016 | 42 | 292 | 1.0 | 5.0 | 0.00 | 0.01 | 0.00 | 56 | 1009.5 |
| 20260508054320 | 41 | 45 | 1.0 | 1.0 | 0.00 | 0.01 | 0.00 | 57 | 1009.5 |
| 20260508053517 | 41 | 227 | 1.0 | 5.0 | 0.00 | 0.01 | 0.00 | 57 | 1009.5 |
| 20260508052623 | 41 | 90 | 1.0 | 5.0 | 0.00 | 0.01 | 0.00 | 56 | 1009.4 |
| 20260508052017 | 41 | 224 | 1.0 | 3.0 | 0.00 | 0.01 | 0.00 | 57 | 1009.4 |
| 20260508051015 | 41 | 225 | 1.0 | 2.0 | 0.00 | 0.01 | 0.00 | 55 | 1009.4 |
| 20260508050016 | 41 | 225 | 1.0 | 2.0 | 0.00 | 0.01 | 0.00 | 56 | 1009.4 |
| 20260508045017 | 42 | 225 | 0.0 | 1.0 | 0.00 | 0.01 | 0.00 | 53 | 1009.4 |
| 20260508044016 | 42 | 206 | 1.0 | 2.0 | 0.00 | 0.01 | 0.00 | 54 | 1009.3 |
| 20260508043017 | 42 | 202 | 2.0 | 4.0 | 0.00 | 0.01 | 0.00 | 53 | 1009.2 |
| 20260508042038 | 43 | 225 | 1.0 | 2.0 | 0.00 | 0.01 | 0.00 | 53 | 1009.1 |
| 20260508041016 | 43 | 225 | 2.0 | 2.0 | 0.00 | 0.01 | 0.00 | 52 | 1009.1 |
| 20260508040818 | 43 | 225 | 2.0 | 2.0 | 0.00 | 0.01 | 0.01 | 52 | 1009.1 |
| 20260508035016 | 44 | 223 | 1.0 | 2.0 | 0.00 | 0.01 | 0.01 | 52 | 1009.1 |
| 20260508034016 | 44 | 205 | 2.0 | 3.0 | 0.00 | 0.01 | 0.01 | 52 | 1009.2 |
| 20260508033037 | 45 | 193 | 2.0 | 5.0 | 0.00 | 0.01 | 0.01 | 51 | 1009.3 |
| 20260508032324 | 45 | 135 | 1.0 | 4.0 | 0.00 | 0.01 | 0.01 | 49 | 1009.3 |
| 20260508031018 | 45 | 207 | 1.0 | 3.0 | 0.00 | 0.01 | 0.01 | 52 | 1009.3 |
| 20260508030324 | 46 | 270 | 1.0 | 3.0 | 0.00 | 0.01 | 0.01 | 50 | 1009.3 |
| 20260508025517 | 46 | 213 | 1.0 | 3.0 | 0.00 | 0.01 | 0.01 | 50 | 1009.3 |
| 20260508024914 | 46 | 225 | 1.0 | 2.0 | 0.00 | 0.01 | 0.01 | 49 | 1009.3 |
| 20260508024017 | 46 | 282 | 1.0 | 3.0 | 0.00 | 0.01 | 0.01 | 48 | 1009.3 |
| 20260508023016 | 46 | 187 | 1.0 | 3.0 | 0.00 | 0.01 | 0.01 | 49 | 1009.2 |
| 20260508022017 | 46 | 226 | 2.0 | 4.0 | 0.00 | 0.01 | 0.01 | 47 | 1009.2 |
| 20260508021016 | 46 | 217 | 2.0 | 4.0 | 0.00 | 0.01 | 0.01 | 46 | 1009.1 |
| 20260508020017 | 46 | 206 | 2.0 | 3.0 | 0.00 | 0.01 | 0.01 | 46 | 1009.0 |
| 20260508015017 | 47 | 255 | 2.0 | 5.0 | 0.00 | 0.01 | 0.01 | 45 | 1008.9 |
| 20260508014016 | 47 | 293 | 2.0 | 6.0 | 0.00 | 0.01 | 0.01 | 44 | 1008.7 |
| 20260508013017 | 47 | 309 | 3.0 | 6.0 | 0.00 | 0.01 | 0.01 | 42 | 1008.7 |
| 20260508012017 | 47 | 299 | 2.0 | 7.0 | 0.00 | 0.01 | 0.01 | 45 | 1008.6 |
| 20260508011016 | 48 | 268 | 2.0 | 5.0 | 0.00 | 0.01 | 0.01 | 45 | 1008.5 |
| 20260508010016 | 49 | 210 | 1.0 | 4.0 | 0.00 | 0.01 | 0.01 | 44 | 1008.4 |
| 20260508005016 | 50 | 263 | 2.0 | 6.0 | 0.00 | 0.01 | 0.01 | 42 | 1008.2 |
| 20260508004057 | 50 | 264 | 2.0 | 8.0 | 0.00 | 0.02 | 0.01 | 41 | 1008.0 |
| 20260508003016 | 51 | 304 | 3.0 | 8.0 | 0.00 | 0.02 | 0.01 | 37 | 1008.0 |
| 20260508002407 | 52 | 270 | 2.0 | 3.0 | 0.00 | 0.02 | 0.01 | 37 | 1007.9 |
| 20260508001537 | 52 | 303 | 3.0 | 10.0 | 0.00 | 0.02 | 0.01 | 39 | 1007.8 |
| 20260508001113 | 53 | 270 | 2.0 | 6.0 | 0.00 | 0.02 | 0.01 | 35 | 1007.7 |
| 20260508000017 | 53 | 299 | 2.0 | 4.0 | 0.00 | 0.02 | 0.01 | 35 | 1007.7 |
| 20260507235544 | 54 | 270 | 4.0 | 5.0 | 0.00 | 0.02 | 0.01 | 34 | 1007.6 |
| 20260507234016 | 55 | 316 | 4.0 | 12.0 | 0.00 | 0.02 | 0.01 | 32 | 1007.5 |
| 20260507233037 | 57 | 319 | 5.0 | 13.0 | 0.00 | 0.02 | 0.01 | 31 | 1007.5 |
| 20260507232016 | 58 | 333 | 4.0 | 10.0 | 0.00 | 0.02 | 0.01 | 31 | 1007.5 |
| 20260507231016 | 59 | 323 | 5.0 | 13.0 | 0.00 | 0.02 | 0.01 | 32 | 1007.5 |
| 20260507230017 | 58 | 318 | 4.0 | 11.0 | 0.00 | 0.02 | 0.01 | 32 | 1007.5 |
| 20260507225126 | 58 | 315 | 4.0 | 7.0 | 0.00 | 0.02 | 0.01 | 33 | 1007.5 |
| 20260507224037 | 58 | 307 | 5.0 | 13.0 | 0.00 | 0.02 | 0.01 | 33 | 1007.4 |
| 20260507223015 | 57 | 305 | 6.0 | 14.0 | 0.00 | 0.02 | 0.01 | 33 | 1007.4 |
| 20260507222016 | 58 | 321 | 5.0 | 15.0 | 0.00 | 0.02 | 0.01 | 33 | 1007.5 |
| 20260507221017 | 58 | 312 | 7.0 | 25.0 | 0.00 | 0.02 | 0.01 | 32 | 1007.6 |
| 20260507220016 | 58 | 325 | 7.0 | 19.0 | 0.00 | 0.02 | 0.01 | 33 | 1007.6 |
| 20260507215319 | 58 | 0 | 6.0 | 6.0 | 0.00 | 0.02 | 0.01 | 33 | 1007.6 |
| 20260507214036 | 59 | 331 | 7.0 | 17.0 | 0.00 | 0.02 | 0.01 | 33 | 1007.6 |
| 20260507213017 | 59 | 309 | 6.0 | 15.0 | 0.00 | 0.02 | 0.01 | 32 | 1007.5 |
| 20260507212339 | 61 | 270 | 7.0 | 10.0 | 0.00 | 0.02 | 0.01 | 32 | 1007.6 |
| 20260507211017 | 61 | 312 | 8.0 | 15.0 | 0.00 | 0.02 | 0.01 | 31 | 1007.6 |
| 20260507210016 | 62 | 324 | 6.0 | 17.0 | 0.00 | 0.02 | 0.01 | 32 | 1007.6 |
| 20260507205016 | 63 | 314 | 5.0 | 18.0 | 0.00 | 0.02 | 0.01 | 32 | 1007.7 |
| 20260507204017 | 63 | 331 | 8.0 | 22.0 | 0.00 | 0.02 | 0.01 | 31 | 1007.7 |